Home > Weather > Thule Air Base > Past weeks

Flag for Greenland Weather for the Past 2 Weeks in Thule Air Base, Greenland

Now
-26 °F

Clear.


Feels Like: -49 °F
Forecast: N/A
Wind: 12 mph from East

Location: Thule A. B.

Current Time: Feb 14, 2016 at 5:06:00 PM

Latest Report: Feb 14, 2016 at 4:58 PM


Visibility: N/A

Pressure: 29.89 "Hg

Humidity: 82%

Dew point: -29 °F

Location of Thule Air BaseLocation

Historic Weather in Thule Air Base — Graph

°F

Thule Air Base Temperature Yesterday

Maximum temperature yesterday: -17 °F (at 11:58 PM)
Minimum temperature yesterday: -27 °F (at 12:58 PM)
Average temperature yesterday: -23 °F

High & Low Weather Summary for the Past Weeks

 TemperatureHumidityPressure
High3 °F (Jan 31, 1:58 PM)92% (Feb 14, 1:58 PM)30.20 "Hg (Feb 14, 1:58 PM)
Low-28 °F (Feb 14, 1:58 PM)46% (Jan 31, 1:58 PM)29.47 "Hg (Feb 7, 9:58 PM)
Average-16 °F70%29.80 "Hg
* Reported Jan 30 3:58 PM — Feb 14 3:58 PM, Thule Air Base, Weather by CustomWeather, © 2016

Note: Actual official high and low records may vary slightly from our data, if they occured in-between our weather recording intervals... More about our weather records

Advertising

Thule Air Base Weather History for the Previous 24 Hours

 ConditionsComfort  
Time TempWeatherWind HumidityBarometerVisibility
3:58 PM
Sun, Feb 14
-26 °FClear.13 mph82%29.88 "HgN/A
2:58 PM-26 °FSunny.10 mph82%29.90 "HgN/A
1:58 PM-28 °FSunny.12 mph92%29.90 "HgN/A
12:58 PM-24 °FSunny.10 mph75%29.91 "HgN/A
11:58 AM-24 °FClear.9 mph75%29.92 "HgN/A
10:58 AM-26 °FClear.8 mph82%29.92 "HgN/A
9:58 AM-26 °FClear.9 mph82%29.93 "HgN/A
8:58 AM-26 °FClear.5 mph82%29.93 "HgN/A
7:58 AM-26 °FClear.6 mph82%29.93 "HgN/A
6:58 AM-24 °FClear.1 mph75%29.93 "HgN/A
5:58 AM-22 °FClear.12 mph68%29.93 "HgN/A
4:58 AM-22 °FClear.13 mph68%29.93 "HgN/A
3:58 AM-20 °FClear.9 mph62%29.92 "HgN/A
2:58 AM-18 °FClear.14 mph56%29.92 "HgN/A
1:58 AM-21 °FClear.12 mph62%29.91 "HgN/A
12:58 AM-17 °FClear.10 mph51%29.90 "HgN/A
11:58 PM
Sat, Feb 13
-17 °FClear.7 mph51%29.89 "HgN/A
10:58 PM-18 °FClear.7 mph56%29.88 "HgN/A
9:58 PM-20 °FClear.16 mph62%29.87 "HgN/A
8:58 PM-22 °FClear.16 mph68%29.86 "HgN/A
7:58 PM-22 °FClear.13 mph68%29.86 "HgN/A
6:58 PM-26 °FClear.14 mph82%29.85 "HgN/A
5:58 PM-27 °FClear.10 mph91%29.85 "HgN/A
Weather by CustomWeather, © 2016

See weather overviewHow to use our weather pages